| time (UTC) | temp C | wind direction | speed KPH | gust KPH | rain 1hr cm | rain 24hr cm | rain mn cm | humidity % | barometer mb |
| 20260509152024 | 11 | 22 | 6.4 | 22.5 | 0.00 | 0.00 | 0.00 | 49 | 1015.1 |
| 20260509151523 | 11 | 292 | 4.8 | 22.5 | 0.00 | 0.00 | 0.00 | 51 | 1015.2 |
| 20260509151021 | 11 | 338 | 4.8 | 9.7 | 0.00 | 0.00 | 0.00 | 55 | 1015.1 |
| 20260509150523 | 11 | 31 | 3.2 | 9.7 | 0.00 | 0.00 | 0.00 | 54 | 1015.1 |
| 20260509150021 | 11 | 10 | 0.0 | 8.0 | 0.00 | 0.00 | 0.00 | 56 | 1015.1 |
| 20260509145520 | 10 | 63 | 0.0 | 6.4 | 0.00 | 0.00 | 0.00 | 59 | 1015.2 |
| 20260509145019 | 10 | 285 | 0.0 | 4.8 | 0.00 | 0.00 | 0.00 | 60 | 1015.1 |
| 20260509144018 | 9 | 269 | 0.0 | 4.8 | 0.00 | 0.00 | 0.00 | 64 | 1015.1 |
| 20260509143517 | 9 | 269 | 3.2 | 4.8 | 0.00 | 0.00 | 0.00 | 64 | 1015.0 |
| 20260509143017 | 9 | 282 | 1.6 | 6.4 | 0.00 | 0.00 | 0.00 | 64 | 1015.1 |
| 20260509142520 | 9 | 304 | 1.6 | 6.4 | 0.00 | 0.00 | 0.00 | 65 | 1015.0 |
| 20260509142016 | 8 | 9 | 1.6 | 6.4 | 0.00 | 0.00 | 0.00 | 65 | 1014.9 |
| 20260509141518 | 8 | 5 | 0.0 | 6.4 | 0.00 | 0.00 | 0.00 | 65 | 1014.9 |
| 20260509141014 | 8 | 38 | 1.6 | 6.4 | 0.00 | 0.00 | 0.00 | 65 | 1014.9 |
| 20260509140515 | 8 | 38 | 0.0 | 6.4 | 0.00 | 0.00 | 0.00 | 66 | 1014.8 |
| 20260509140015 | 8 | 23 | 3.2 | 6.4 | 0.00 | 0.00 | 0.00 | 67 | 1014.8 |
| 20260509135514 | 8 | 5 | 1.6 | 6.4 | 0.00 | 0.00 | 0.00 | 67 | 1014.8 |
| 20260509135014 | 8 | 30 | 1.6 | 6.4 | 0.00 | 0.00 | 0.00 | 68 | 1014.7 |
| 20260509134012 | 7 | 50 | 4.8 | 8.0 | 0.00 | 0.00 | 0.00 | 70 | 1014.5 |
| 20260509133512 | 7 | 5 | 4.8 | 8.0 | 0.00 | 0.00 | 0.00 | 71 | 1014.5 |
| 20260509133012 | 7 | 42 | 4.8 | 8.0 | 0.00 | 0.00 | 0.00 | 72 | 1014.4 |
| 20260509132512 | 7 | 19 | 3.2 | 8.0 | 0.00 | 0.00 | 0.00 | 72 | 1014.4 |
| 20260509132012 | 7 | 32 | 1.6 | 8.0 | 0.00 | 0.00 | 0.00 | 73 | 1014.4 |
| 20260509131514 | 6 | 33 | 1.6 | 8.0 | 0.00 | 0.00 | 0.00 | 74 | 1014.3 |
| 20260509131010 | 6 | 49 | 3.2 | 8.0 | 0.00 | 0.00 | 0.00 | 74 | 1014.3 |
| 20260509130511 | 6 | 13 | 4.8 | 8.0 | 0.00 | 0.00 | 0.00 | 75 | 1014.3 |
| 20260509130024 | 6 | 5 | 4.8 | 8.0 | 0.00 | 0.00 | 0.00 | 76 | 1014.2 |
| 20260509125509 | 6 | 22 | 3.2 | 6.4 | 0.00 | 0.00 | 0.00 | 77 | 1014.1 |
| 20260509125009 | 5 | 15 | 0.0 | 3.2 | 0.00 | 0.00 | 0.00 | 79 | 1014.1 |
| 20260509124010 | 5 | 15 | 0.0 | 1.6 | 0.00 | 0.00 | 0.00 | 80 | 1013.9 |
| 20260509123509 | 4 | 15 | 0.0 | 1.6 | 0.00 | 0.00 | 0.00 | 80 | 1013.9 |
| 20260509123009 | 4 | 15 | 0.0 | 1.6 | 0.00 | 0.00 | 0.00 | 81 | 1013.9 |
| 20260509122509 | 4 | 13 | 0.0 | 0.0 | 0.00 | 0.00 | 0.00 | 80 | 1013.7 |
| 20260509122008 | 3 | 13 | 0.0 | 0.0 | 0.00 | 0.00 | 0.00 | 81 | 1013.5 |
| 20260509121511 | 3 | 13 | 0.0 | 0.0 | 0.00 | 0.00 | 0.00 | 81 | 1013.5 |
| 20260509121007 | 3 | 13 | 0.0 | 0.0 | 0.00 | 0.00 | 0.00 | 82 | 1013.5 |
| 20260509120507 | 3 | 13 | 0.0 | 0.0 | 0.00 | 0.00 | 0.00 | 82 | 1013.3 |
| 20260509120007 | 3 | 13 | 0.0 | 0.0 | 0.00 | 0.00 | 0.00 | 83 | 1013.3 |
| 20260509115505 | 3 | 13 | 0.0 | 0.0 | 0.00 | 0.00 | 0.00 | 83 | 1013.1 |
| 20260509115005 | 2 | 14 | 0.0 | 0.0 | 0.00 | 0.00 | 0.00 | 83 | 1013.2 |
| 20260509114100 | 2 | 14 | 0.0 | 0.0 | 0.00 | 0.00 | 0.00 | 82 | 1012.9 |
| 20260509113603 | 2 | 14 | 0.0 | 0.0 | 0.00 | 0.00 | 0.00 | 81 | 1012.9 |
| 20260509113101 | 3 | 14 | 0.0 | 0.0 | 0.00 | 0.00 | 0.00 | 81 | 1012.9 |
| 20260509112557 | 3 | 14 | 0.0 | 0.0 | 0.00 | 0.00 | 0.00 | 81 | 1012.8 |
| 20260509112056 | 3 | 16 | 0.0 | 0.0 | 0.00 | 0.00 | 0.00 | 81 | 1012.7 |
| 20260509111556 | 3 | 16 | 0.0 | 0.0 | 0.00 | 0.00 | 0.00 | 82 | 1012.7 |
| 20260509111054 | 3 | 17 | 0.0 | 0.0 | 0.00 | 0.00 | 0.00 | 82 | 1012.5 |
| 20260509110558 | 3 | 17 | 0.0 | 3.2 | 0.00 | 0.00 | 0.00 | 82 | 1012.4 |
| 20260509110056 | 3 | 17 | 0.0 | 3.2 | 0.00 | 0.00 | 0.00 | 82 | 1012.4 |
| 20260509105552 | 3 | 16 | 0.0 | 1.6 | 0.00 | 0.00 | 0.00 | 81 | 1012.3 |
| 20260509105051 | 3 | 16 | 0.0 | 1.6 | 0.00 | 0.00 | 0.00 | 81 | 1012.1 |
| 20260509104652 | 3 | 16 | 0.0 | 4.8 | 0.00 | 0.00 | 0.00 | 81 | 1012.1 |
| 20260509104051 | 4 | 16 | 0.0 | 6.4 | 0.00 | 0.00 | 0.00 | 81 | 1012.0 |
| 20260509103551 | 4 | 23 | 3.2 | 8.0 | 0.00 | 0.00 | 0.00 | 81 | 1011.9 |
| 20260509103100 | 4 | 24 | 3.2 | 8.0 | 0.00 | 0.00 | 0.00 | 81 | 1011.8 |
| 20260509102550 | 4 | 33 | 3.2 | 8.0 | 0.00 | 0.00 | 0.00 | 81 | 1011.6 |
| 20260509102050 | 4 | 36 | 4.8 | 8.0 | 0.00 | 0.00 | 0.00 | 81 | 1011.6 |
| 20260509101601 | 4 | 28 | 3.2 | 6.4 | 0.00 | 0.00 | 0.00 | 81 | 1011.6 |
| 20260509101047 | 4 | 28 | 3.2 | 6.4 | 0.00 | 0.00 | 0.00 | 81 | 1011.5 |
| 20260509100547 | 5 | 28 | 3.2 | 6.4 | 0.00 | 0.00 | 0.00 | 81 | 1011.4 |
| 20260509100046 | 5 | 28 | 1.6 | 4.8 | 0.00 | 0.00 | 0.00 | 80 | 1011.3 |
| 20260509095545 | 5 | 28 | 1.6 | 6.4 | 0.00 | 0.00 | 0.00 | 80 | 1011.2 |
| 20260509095044 | 5 | 28 | 3.2 | 8.0 | 0.00 | 0.00 | 0.00 | 80 | 1011.2 |
| 20260509094645 | 5 | 26 | 3.2 | 8.0 | 0.00 | 0.00 | 0.00 | 80 | 1011.1 |
| 20260509094043 | 5 | 28 | 3.2 | 6.4 | 0.00 | 0.00 | 0.00 | 80 | 1011.1 |
| 20260509093540 | 5 | 20 | 3.2 | 4.8 | 0.00 | 0.00 | 0.00 | 80 | 1011.0 |
| 20260509093040 | 5 | 20 | 3.2 | 4.8 | 0.00 | 0.00 | 0.00 | 81 | 1011.0 |
| 20260509092539 | 5 | 20 | 3.2 | 4.8 | 0.00 | 0.00 | 0.00 | 81 | 1010.9 |
| 20260509092038 | 5 | 20 | 3.2 | 4.8 | 0.00 | 0.00 | 0.00 | 81 | 1010.7 |
| 20260509091537 | 5 | 20 | 0.0 | 3.2 | 0.00 | 0.00 | 0.00 | 80 | 1010.9 |
| 20260509091039 | 5 | 20 | 0.0 | 1.6 | 0.00 | 0.00 | 0.00 | 80 | 1010.5 |
| 20260509090538 | 5 | 20 | 0.0 | 3.2 | 0.00 | 0.00 | 0.00 | 80 | 1010.3 |
| 20260509090040 | 5 | 20 | 0.0 | 3.2 | 0.00 | 0.00 | 0.00 | 81 | 1010.3 |
| 20260509085533 | 5 | 20 | 0.0 | 1.6 | 0.00 | 0.00 | 0.00 | 80 | 1010.3 |
| 20260509085032 | 5 | 20 | 0.0 | 1.6 | 0.00 | 0.00 | 0.00 | 79 | 1010.2 |
| 20260509084632 | 5 | 20 | 0.0 | 3.2 | 0.00 | 0.00 | 0.00 | 79 | 1010.1 |
| 20260509084037 | 5 | 20 | 0.0 | 3.2 | 0.00 | 0.00 | 0.00 | 80 | 1010.0 |
| 20260509083537 | 5 | 20 | 1.6 | 4.8 | 0.00 | 0.00 | 0.00 | 79 | 1009.8 |
| 20260509083050 | 6 | 20 | 1.6 | 4.8 | 0.00 | 0.00 | 0.00 | 80 | 1009.6 |
| 20260509082534 | 6 | 20 | 1.6 | 4.8 | 0.00 | 0.00 | 0.00 | 79 | 1009.5 |
| 20260509082033 | 6 | 20 | 1.6 | 4.8 | 0.00 | 0.00 | 0.00 | 79 | 1009.6 |
| 20260509081532 | 6 | 20 | 1.6 | 4.8 | 0.00 | 0.00 | 0.00 | 78 | 1009.5 |
| 20260509081030 | 6 | 21 | 1.6 | 4.8 | 0.00 | 0.00 | 0.00 | 78 | 1009.4 |
| 20260509080528 | 7 | 21 | 3.2 | 6.4 | 0.00 | 0.00 | 0.00 | 78 | 1009.4 |
| 20260509080030 | 7 | 24 | 3.2 | 6.4 | 0.00 | 0.00 | 0.00 | 78 | 1009.4 |
| 20260509075531 | 7 | 45 | 1.6 | 4.8 | 0.00 | 0.00 | 0.00 | 78 | 1009.4 |
| 20260509075026 | 7 | 45 | 0.0 | 3.2 | 0.00 | 0.00 | 0.00 | 77 | 1009.4 |
| 20260509074625 | 7 | 45 | 0.0 | 0.0 | 0.00 | 0.00 | 0.00 | 77 | 1009.2 |
| 20260509074024 | 7 | 45 | 0.0 | 0.0 | 0.00 | 0.00 | 0.00 | 77 | 1009.3 |
| 20260509073524 | 7 | 45 | 0.0 | 3.2 | 0.00 | 0.00 | 0.00 | 76 | 1009.2 |
| 20260509073030 | 8 | 45 | 0.0 | 4.8 | 0.00 | 0.00 | 0.00 | 77 | 1009.2 |
| 20260509072524 | 8 | 45 | 1.6 | 8.0 | 0.00 | 0.00 | 0.00 | 77 | 1009.0 |
| 20260509072022 | 8 | 45 | 3.2 | 9.7 | 0.00 | 0.00 | 0.00 | 78 | 1008.9 |
| 20260509071530 | 7 | 44 | 4.8 | 9.7 | 0.00 | 0.00 | 0.00 | 78 | 1009.0 |
| 20260509071021 | 7 | 103 | 3.2 | 4.8 | 0.00 | 0.00 | 0.00 | 75 | 1008.9 |
| 20260509070524 | 7 | 103 | 3.2 | 4.8 | 0.00 | 0.00 | 0.00 | 73 | 1008.9 |
| 20260509070018 | 8 | 103 | 1.6 | 6.4 | 0.00 | 0.00 | 0.00 | 72 | 1008.7 |
| 20260509065517 | 8 | 103 | 3.2 | 6.4 | 0.00 | 0.00 | 0.00 | 72 | 1008.5 |
| 20260509065015 | 8 | 103 | 0.0 | 0.0 | 0.00 | 0.00 | 0.00 | 69 | 1008.5 |
| 20260509064615 | 9 | 103 | 0.0 | 0.0 | 0.00 | 0.00 | 0.00 | 70 | 1008.4 |
| 20260509064011 | 9 | 103 | 0.0 | 0.0 | 0.00 | 0.00 | 0.00 | 70 | 1008.4 |
| 20260509063511 | 10 | 103 | 0.0 | 0.0 | 0.00 | 0.00 | 0.00 | 69 | 1008.4 |
| 20260509063018 | 10 | 103 | 0.0 | 0.0 | 0.00 | 0.00 | 0.00 | 68 | 1008.3 |
| 20260509062509 | 10 | 103 | 0.0 | 0.0 | 0.00 | 0.00 | 0.00 | 67 | 1008.2 |
| 20260509062007 | 10 | 103 | 0.0 | 1.6 | 0.00 | 0.00 | 0.00 | 67 | 1008.2 |
| 20260509061508 | 10 | 103 | 0.0 | 1.6 | 0.00 | 0.00 | 0.00 | 67 | 1007.9 |
| 20260509061012 | 11 | 103 | 0.0 | 3.2 | 0.00 | 0.00 | 0.00 | 66 | 1007.8 |
| 20260509060508 | 11 | 103 | 1.6 | 4.8 | 0.00 | 0.00 | 0.00 | 66 | 1007.8 |
| 20260509060008 | 11 | 103 | 1.6 | 9.7 | 0.00 | 0.00 | 0.00 | 65 | 1007.7 |
| 20260509055507 | 11 | 103 | 1.6 | 11.3 | 0.00 | 0.00 | 0.00 | 64 | 1007.6 |
| 20260509055007 | 11 | 111 | 4.8 | 11.3 | 0.00 | 0.00 | 0.00 | 64 | 1007.7 |
| 20260509054618 | 11 | 103 | 4.8 | 9.7 | 0.00 | 0.00 | 0.00 | 62 | 1007.8 |
| 20260509054006 | 11 | 103 | 4.8 | 9.7 | 0.00 | 0.00 | 0.00 | 62 | 1007.7 |
| 20260509053506 | 11 | 103 | 1.6 | 6.4 | 0.00 | 0.00 | 0.00 | 62 | 1007.7 |
| 20260509053006 | 11 | 103 | 1.6 | 9.7 | 0.00 | 0.00 | 0.00 | 62 | 1007.6 |
| 20260509052506 | 12 | 103 | 3.2 | 9.7 | 0.00 | 0.00 | 0.00 | 61 | 1007.6 |
| 20260509052005 | 12 | 103 | 0.0 | 6.4 | 0.00 | 0.00 | 0.00 | 61 | 1007.5 |
| 20260509051505 | 12 | 103 | 1.6 | 9.7 | 0.00 | 0.00 | 0.00 | 61 | 1007.6 |
| 20260509051005 | 12 | 109 | 3.2 | 9.7 | 0.00 | 0.00 | 0.00 | 60 | 1007.6 |
| 20260509050505 | 12 | 74 | 1.6 | 9.7 | 0.00 | 0.00 | 0.00 | 59 | 1007.5 |
| 20260509050005 | 12 | 88 | 3.2 | 22.5 | 0.00 | 0.00 | 0.00 | 59 | 1007.5 |
| 20260509045508 | 12 | 63 | 8.0 | 22.5 | 0.00 | 0.00 | 0.00 | 58 | 1007.4 |
| 20260509045004 | 12 | 63 | 12.9 | 27.4 | 0.00 | 0.00 | 0.00 | 59 | 1007.5 |
| 20260509044704 | 13 | 61 | 12.9 | 22.5 | 0.00 | 0.00 | 0.00 | 59 | 1007.5 |
| 20260509044008 | 13 | 73 | 12.9 | 22.5 | 0.00 | 0.00 | 0.00 | 59 | 1007.3 |
| 20260509043506 | 13 | 67 | 6.4 | 24.1 | 0.00 | 0.00 | 0.00 | 58 | 1006.9 |
| 20260509043005 | 13 | 67 | 11.3 | 24.1 | 0.00 | 0.00 | 0.00 | 57 | 1007.0 |
| 20260509042505 | 13 | 57 | 12.9 | 24.1 | 0.00 | 0.00 | 0.00 | 58 | 1007.0 |
| 20260509042008 | 13 | 59 | 11.3 | 19.3 | 0.00 | 0.00 | 0.00 | 59 | 1006.9 |
| 20260509041505 | 13 | 35 | 6.4 | 16.1 | 0.00 | 0.00 | 0.00 | 59 | 1006.7 |
| 20260509041005 | 13 | 55 | 8.0 | 14.5 | 0.00 | 0.00 | 0.00 | 59 | 1006.6 |
| 20260509040505 | 13 | 36 | 6.4 | 14.5 | 0.00 | 0.00 | 0.00 | 58 | 1006.7 |
| 20260509040008 | 13 | 31 | 4.8 | 14.5 | 0.00 | 0.00 | 0.00 | 58 | 1006.6 |
| 20260509035505 | 13 | 29 | 6.4 | 12.9 | 0.00 | 0.00 | 0.00 | 58 | 1006.7 |
| 20260509035005 | 13 | 31 | 4.8 | 12.9 | 0.00 | 0.00 | 0.00 | 58 | 1006.6 |
| 20260509034605 | 13 | 28 | 4.8 | 9.7 | 0.00 | 0.00 | 0.00 | 58 | 1006.3 |
| 20260509034003 | 13 | 30 | 4.8 | 12.9 | 0.00 | 0.00 | 0.00 | 57 | 1006.1 |
| 20260509033503 | 13 | 43 | 6.4 | 12.9 | 0.00 | 0.00 | 0.00 | 57 | 1006.0 |
| 20260509033002 | 13 | 37 | 6.4 | 11.3 | 0.00 | 0.00 | 0.00 | 57 | 1006.0 |
| 20260509032505 | 13 | 28 | 4.8 | 16.1 | 0.00 | 0.00 | 0.00 | 56 | 1006.2 |
| 20260509032002 | 13 | 42 | 8.0 | 16.1 | 0.00 | 0.00 | 0.00 | 57 | 1006.5 |
| 20260509031506 | 13 | 30 | 4.8 | 9.7 | 0.00 | 0.00 | 0.00 | 56 | 1006.6 |
| 20260509031001 | 13 | 32 | 4.8 | 9.7 | 0.00 | 0.00 | 0.00 | 56 | 1006.6 |
| 20260509030503 | 13 | 34 | 4.8 | 9.7 | 0.00 | 0.00 | 0.00 | 56 | 1006.5 |
| 20260509030001 | 13 | 45 | 4.8 | 9.7 | 0.00 | 0.00 | 0.00 | 56 | 1006.3 |
| 20260509025502 | 13 | 24 | 3.2 | 9.7 | 0.00 | 0.00 | 0.00 | 55 | 1006.1 |
| 20260509025002 | 14 | 38 | 4.8 | 12.9 | 0.00 | 0.00 | 0.00 | 54 | 1006.0 |
| 20260509024603 | 15 | 28 | 6.4 | 19.3 | 0.00 | 0.00 | 0.00 | 53 | 1005.8 |
| 20260509024002 | 15 | 17 | 6.4 | 19.3 | 0.00 | 0.00 | 0.00 | 53 | 1005.7 |
| 20260509023502 | 15 | 34 | 8.0 | 25.7 | 0.00 | 0.00 | 0.00 | 53 | 1005.5 |
| 20260509023002 | 15 | 19 | 8.0 | 25.7 | 0.00 | 0.00 | 0.00 | 52 | 1005.5 |
| 20260509022501 | 15 | 28 | 9.7 | 17.7 | 0.00 | 0.00 | 0.00 | 52 | 1005.4 |
| 20260509022001 | 15 | 26 | 9.7 | 17.7 | 0.00 | 0.00 | 0.00 | 51 | 1005.1 |
| 20260509021501 | 15 | 27 | 6.4 | 24.1 | 0.00 | 0.00 | 0.00 | 50 | 1005.3 |
| 20260509021000 | 16 | 46 | 8.0 | 25.7 | 0.00 | 0.00 | 0.00 | 50 | 1005.3 |
| 20260509020600 | 16 | 9 | 12.9 | 25.7 | 0.00 | 0.00 | 0.00 | 49 | 1005.1 |
| 20260509020108 | 16 | 9 | 11.3 | 24.1 | 0.00 | 0.00 | 0.00 | 48 | 1005.1 |
| 20260509015604 | 16 | 22 | 12.9 | 24.1 | 0.00 | 0.00 | 0.00 | 48 | 1004.8 |
| 20260509015101 | 16 | 32 | 9.7 | 20.9 | 0.00 | 0.00 | 0.00 | 49 | 1005.0 |
| 20260509014600 | 16 | 13 | 8.0 | 19.3 | 0.00 | 0.00 | 0.00 | 47 | 1005.2 |
| 20260509013559 | 17 | 5 | 6.4 | 14.5 | 0.00 | 0.00 | 0.00 | 40 | 1004.5 |
| 20260509013102 | 17 | 12 | 4.8 | 11.3 | 0.00 | 0.00 | 0.00 | 40 | 1004.2 |
| 20260509012558 | 17 | 22 | 3.2 | 12.9 | 0.00 | 0.00 | 0.00 | 39 | 1004.0 |
| 20260509012059 | 18 | 5 | 4.8 | 12.9 | 0.00 | 0.00 | 0.00 | 39 | 1003.9 |
| 20260509011600 | 18 | 28 | 4.8 | 17.7 | 0.00 | 0.00 | 0.00 | 38 | 1003.7 |
| 20260509011058 | 18 | 20 | 4.8 | 27.4 | 0.00 | 0.00 | 0.00 | 37 | 1003.7 |
| 20260509010558 | 19 | 43 | 4.8 | 9.7 | 0.00 | 0.00 | 0.00 | 32 | 1003.8 |
| 20260509010058 | 20 | 11 | 1.6 | 12.9 | 0.00 | 0.00 | 0.00 | 32 | 1003.6 |
| 20260509005558 | 20 | 360 | 6.4 | 22.5 | 0.00 | 0.00 | 0.00 | 32 | 1003.8 |
| 20260509005057 | 20 | 5 | 9.7 | 22.5 | 0.00 | 0.00 | 0.00 | 32 | 1003.7 |
| 20260509004601 | 21 | 360 | 4.8 | 27.4 | 0.00 | 0.00 | 0.00 | 28 | 1004.1 |
| 20260509003557 | 21 | 351 | 9.7 | 27.4 | 0.00 | 0.00 | 0.00 | 27 | 1004.1 |
| 20260509003059 | 21 | 308 | 6.4 | 14.5 | 0.00 | 0.00 | 0.00 | 26 | 1004.0 |
| 20260509002556 | 21 | 269 | 6.4 | 16.1 | 0.00 | 0.00 | 0.00 | 27 | 1003.8 |
| 20260509002057 | 21 | 283 | 1.6 | 16.1 | 0.00 | 0.00 | 0.00 | 27 | 1004.0 |
| 20260509001556 | 21 | 275 | 4.8 | 16.1 | 0.00 | 0.00 | 0.00 | 26 | 1003.9 |
| 20260509001055 | 22 | 281 | 6.4 | 17.7 | 0.00 | 0.00 | 0.00 | 26 | 1003.9 |
| 20260509000555 | 22 | 290 | 8.0 | 20.9 | 0.00 | 0.00 | 0.00 | 26 | 1003.9 |
| 20260509000100 | 22 | 323 | 11.3 | 25.7 | 0.00 | 0.00 | 0.00 | 25 | 1004.0 |
| 20260508235555 | 23 | 272 | 12.9 | 25.7 | 0.00 | 0.00 | 0.00 | 24 | 1004.1 |
| 20260508235055 | 23 | 263 | 11.3 | 22.5 | 0.00 | 0.00 | 0.00 | 25 | 1004.2 |
| 20260508234556 | 22 | 238 | 6.4 | 16.1 | 0.00 | 0.00 | 0.00 | 27 | 1004.3 |
| 20260508233555 | 22 | 265 | 8.0 | 19.3 | 0.00 | 0.00 | 0.00 | 26 | 1004.5 |
| 20260508233053 | 22 | 249 | 8.0 | 19.3 | 0.00 | 0.00 | 0.00 | 26 | 1004.6 |
| 20260508232554 | 22 | 266 | 9.7 | 20.9 | 0.00 | 0.00 | 0.00 | 26 | 1004.7 |
| 20260508232052 | 23 | 268 | 12.9 | 20.9 | 0.00 | 0.00 | 0.00 | 25 | 1004.8 |
| 20260508231551 | 22 | 330 | 6.4 | 17.7 | 0.00 | 0.00 | 0.00 | 28 | 1004.9 |
| 20260508231051 | 21 | 318 | 8.0 | 19.3 | 0.00 | 0.00 | 0.00 | 27 | 1004.9 |
| 20260508230554 | 21 | 308 | 6.4 | 19.3 | 0.00 | 0.00 | 0.00 | 27 | 1005.0 |
| 20260508230050 | 22 | 317 | 8.0 | 25.7 | 0.00 | 0.00 | 0.00 | 27 | 1005.0 |
| 20260508225549 | 22 | 315 | 9.7 | 25.7 | 0.00 | 0.00 | 0.00 | 27 | 1005.2 |
| 20260508225051 | 22 | 348 | 8.0 | 27.4 | 0.00 | 0.00 | 0.00 | 26 | 1005.3 |
| 20260508224611 | 22 | 309 | 8.0 | 24.1 | 0.00 | 0.00 | 0.00 | 25 | 1005.4 |
| 20260508223551 | 22 | 248 | 11.3 | 24.1 | 0.00 | 0.00 | 0.00 | 25 | 1005.4 |
| 20260508223053 | 23 | 262 | 9.7 | 20.9 | 0.00 | 0.00 | 0.00 | 25 | 1005.6 |
| 20260508222551 | 22 | 286 | 4.8 | 25.7 | 0.00 | 0.00 | 0.00 | 26 | 1005.7 |
| 20260508222049 | 22 | 262 | 9.7 | 25.7 | 0.00 | 0.00 | 0.00 | 25 | 1005.7 |
| 20260508221549 | 22 | 327 | 8.0 | 20.9 | 0.00 | 0.00 | 0.00 | 25 | 1005.6 |
| 20260508221048 | 22 | 323 | 11.3 | 20.9 | 0.00 | 0.00 | 0.00 | 24 | 1005.7 |
| 20260508220548 | 23 | 295 | 11.3 | 17.7 | 0.00 | 0.00 | 0.00 | 24 | 1005.7 |
| 20260508220052 | 23 | 334 | 11.3 | 25.7 | 0.00 | 0.00 | 0.00 | 24 | 1005.7 |
| 20260508215547 | 23 | 263 | 14.5 | 25.7 | 0.00 | 0.00 | 0.00 | 23 | 1006.0 |
| 20260508215048 | 23 | 275 | 11.3 | 29.0 | 0.00 | 0.00 | 0.00 | 22 | 1005.8 |
| 20260508214546 | 23 | 301 | 9.7 | 24.1 | 0.00 | 0.00 | 0.00 | 23 | 1006.0 |
| 20260508213544 | 23 | 262 | 8.0 | 22.5 | 0.00 | 0.00 | 0.00 | 24 | 1006.0 |
| 20260508213044 | 23 | 278 | 11.3 | 22.5 | 0.00 | 0.00 | 0.00 | 23 | 1006.2 |
| 20260508212544 | 23 | 273 | 11.3 | 22.5 | 0.00 | 0.00 | 0.00 | 23 | 1006.2 |
| 20260508212042 | 23 | 275 | 9.7 | 25.7 | 0.00 | 0.00 | 0.00 | 24 | 1006.3 |
| 20260508211548 | 23 | 270 | 12.9 | 25.7 | 0.00 | 0.00 | 0.00 | 23 | 1006.3 |
| 20260508211041 | 23 | 329 | 6.4 | 25.7 | 0.00 | 0.00 | 0.00 | 23 | 1006.6 |
| 20260508210540 | 23 | 280 | 11.3 | 25.7 | 0.00 | 0.00 | 0.00 | 24 | 1006.5 |
| 20260508210044 | 22 | 314 | 6.4 | 22.5 | 0.00 | 0.00 | 0.00 | 24 | 1006.7 |
| 20260508205543 | 22 | 290 | 12.9 | 22.5 | 0.00 | 0.00 | 0.00 | 23 | 1006.8 |
| 20260508205038 | 22 | 314 | 8.0 | 19.3 | 0.00 | 0.00 | 0.00 | 24 | 1006.9 |
| 20260508204637 | 23 | 259 | 11.3 | 25.7 | 0.00 | 0.00 | 0.00 | 23 | 1007.0 |
| 20260508203535 | 23 | 268 | 14.5 | 20.9 | 0.00 | 0.00 | 0.00 | 25 | 1007.0 |
| 20260508203041 | 22 | 226 | 8.0 | 27.4 | 0.00 | 0.00 | 0.00 | 24 | 1007.1 |
| 20260508202535 | 22 | 319 | 14.5 | 27.4 | 0.00 | 0.00 | 0.00 | 24 | 1007.2 |
| 20260508202036 | 22 | 13 | 8.0 | 24.1 | 0.00 | 0.00 | 0.00 | 24 | 1007.1 |
| 20260508201534 | 23 | 267 | 12.9 | 24.1 | 0.00 | 0.00 | 0.00 | 24 | 1007.1 |
| 20260508201032 | 22 | 252 | 9.7 | 25.7 | 0.00 | 0.00 | 0.00 | 24 | 1007.2 |
| 20260508200532 | 22 | 287 | 11.3 | 24.1 | 0.00 | 0.00 | 0.00 | 25 | 1007.2 |
| 20260508200033 | 22 | 267 | 8.0 | 19.3 | 0.00 | 0.00 | 0.00 | 25 | 1007.5 |
| 20260508195532 | 22 | 264 | 6.4 | 19.3 | 0.00 | 0.00 | 0.00 | 24 | 1007.5 |
| 20260508195028 | 22 | 330 | 4.8 | 19.3 | 0.00 | 0.00 | 0.00 | 25 | 1007.7 |
| 20260508194535 | 22 | 323 | 8.0 | 25.7 | 0.00 | 0.00 | 0.00 | 24 | 1007.9 |
| 20260508193532 | 22 | 308 | 8.0 | 25.7 | 0.00 | 0.00 | 0.00 | 24 | 1007.9 |
| 20260508193031 | 22 | 284 | 11.3 | 22.5 | 0.00 | 0.00 | 0.00 | 24 | 1008.0 |
| 20260508192532 | 21 | 256 | 6.4 | 19.3 | 0.00 | 0.00 | 0.00 | 24 | 1008.2 |
| 20260508192031 | 22 | 247 | 9.7 | 27.4 | 0.00 | 0.00 | 0.00 | 23 | 1008.1 |
| 20260508191535 | 22 | 243 | 9.7 | 27.4 | 0.00 | 0.00 | 0.00 | 25 | 1008.2 |
| 20260508191028 | 21 | 265 | 9.7 | 25.7 | 0.00 | 0.00 | 0.00 | 24 | 1008.4 |
| 20260508190529 | 21 | 110 | 3.2 | 22.5 | 0.00 | 0.00 | 0.00 | 23 | 1008.2 |
| 20260508190027 | 21 | 267 | 9.7 | 22.5 | 0.00 | 0.00 | 0.00 | 24 | 1008.5 |
| 20260508185527 | 21 | 261 | 6.4 | 17.7 | 0.00 | 0.00 | 0.00 | 25 | 1008.4 |
| 20260508185026 | 21 | 318 | 9.7 | 17.7 | 0.00 | 0.00 | 0.00 | 25 | 1008.6 |
| 20260508184526 | 21 | 301 | 6.4 | 16.1 | 0.00 | 0.00 | 0.00 | 24 | 1008.6 |
| 20260508183525 | 21 | 302 | 9.7 | 20.9 | 0.00 | 0.00 | 0.00 | 25 | 1008.9 |
| 20260508183031 | 20 | 325 | 3.2 | 22.5 | 0.00 | 0.00 | 0.00 | 25 | 1008.8 |
| 20260508182525 | 20 | 326 | 6.4 | 22.5 | 0.00 | 0.00 | 0.00 | 25 | 1009.0 |
| 20260508182025 | 21 | 211 | 9.7 | 22.5 | 0.00 | 0.00 | 0.00 | 25 | 1009.1 |
| 20260508181522 | 20 | 309 | 11.3 | 22.5 | 0.00 | 0.00 | 0.00 | 25 | 1009.2 |
| 20260508181021 | 20 | 317 | 6.4 | 17.7 | 0.00 | 0.00 | 0.00 | 25 | 1009.2 |
| 20260508180522 | 20 | 355 | 6.4 | 24.1 | 0.00 | 0.00 | 0.00 | 25 | 1009.3 |
| 20260508180023 | 20 | 257 | 9.7 | 24.1 | 0.00 | 0.00 | 0.00 | 25 | 1009.4 |
| 20260508175521 | 20 | 269 | 6.4 | 24.1 | 0.00 | 0.00 | 0.00 | 26 | 1009.5 |
| 20260508175021 | 20 | 273 | 11.3 | 24.1 | 0.00 | 0.00 | 0.00 | 25 | 1009.8 |
| 20260508174520 | 20 | 306 | 3.2 | 17.7 | 0.00 | 0.00 | 0.00 | 26 | 1009.7 |
| 20260508173516 | 20 | 281 | 6.4 | 22.5 | 0.00 | 0.00 | 0.00 | 26 | 1009.8 |
| 20260508173015 | 19 | 277 | 9.7 | 22.5 | 0.00 | 0.00 | 0.00 | 26 | 1010.0 |
| 20260508172517 | 20 | 271 | 8.0 | 16.1 | 0.00 | 0.00 | 0.00 | 26 | 1009.9 |
| 20260508172014 | 20 | 273 | 4.8 | 19.3 | 0.00 | 0.00 | 0.00 | 26 | 1010.0 |
| 20260508171515 | 20 | 234 | 9.7 | 19.3 | 0.00 | 0.00 | 0.00 | 26 | 1010.0 |
| 20260508171013 | 19 | 289 | 4.8 | 12.9 | 0.00 | 0.00 | 0.00 | 27 | 1010.0 |
| 20260508170512 | 19 | 336 | 4.8 | 17.7 | 0.00 | 0.00 | 0.00 | 26 | 1010.3 |
| 20260508170012 | 19 | 286 | 9.7 | 17.7 | 0.00 | 0.00 | 0.00 | 26 | 1010.2 |
| 20260508165511 | 18 | 261 | 4.8 | 16.1 | 0.00 | 0.00 | 0.00 | 27 | 1010.2 |
| 20260508165011 | 19 | 334 | 3.2 | 19.3 | 0.00 | 0.00 | 0.00 | 27 | 1010.2 |
| 20260508164510 | 18 | 282 | 8.0 | 19.3 | 0.00 | 0.00 | 0.00 | 28 | 1010.3 |
| 20260508163510 | 18 | 360 | 6.4 | 16.1 | 0.00 | 0.00 | 0.00 | 28 | 1010.3 |
| 20260508163012 | 18 | 276 | 1.6 | 12.9 | 0.00 | 0.00 | 0.00 | 28 | 1010.2 |
| 20260508162509 | 18 | 281 | 4.8 | 12.9 | 0.00 | 0.00 | 0.00 | 29 | 1010.5 |
| 20260508162007 | 18 | 284 | 4.8 | 14.5 | 0.00 | 0.00 | 0.00 | 29 | 1010.5 |
| 20260508161507 | 18 | 319 | 6.4 | 14.5 | 0.00 | 0.00 | 0.00 | 29 | 1010.5 |
| 20260508161006 | 17 | 45 | 1.6 | 12.9 | 0.00 | 0.00 | 0.00 | 29 | 1010.4 |
| 20260508160507 | 17 | 355 | 1.6 | 12.9 | 0.00 | 0.00 | 0.00 | 29 | 1010.5 |
| 20260508160012 | 17 | 277 | 0.0 | 11.3 | 0.00 | 0.00 | 0.00 | 29 | 1010.6 |
| 20260508155507 | 17 | 23 | 4.8 | 11.3 | 0.00 | 0.00 | 0.00 | 30 | 1010.7 |
| 20260508155003 | 17 | 5 | 3.2 | 14.5 | 0.00 | 0.00 | 0.00 | 30 | 1010.7 |
| 20260508154502 | 17 | 283 | 3.2 | 8.0 | 0.00 | 0.00 | 0.00 | 30 | 1010.6 |
| 20260508153508 | 17 | 47 | 3.2 | 8.0 | 0.00 | 0.00 | 0.00 | 30 | 1010.7 |
| 20260508153003 | 16 | 5 | 3.2 | 9.7 | 0.00 | 0.00 | 0.00 | 31 | 1010.7 |
| 20260508152506 | 16 | 355 | 4.8 | 9.7 | 0.00 | 0.00 | 0.00 | 30 | 1010.8 |